Wadena, MN

6:05 PM CDT on September 24, 2017 (GMT -0500)
Wadena Municipal

Weather History for KADC - December, 2013

Change the Weather History Date:

Tuesday, December 3, 2013

  Actual Average Record
Temperature  
Mean Temperature 28 °F -  
Max Temperature 30 °F 24 °F 57 °F (1962)
Min Temperature 26 °F 6 °F -27 °F (1985)
Degree Days  
Heating Degree Days 37    
Moisture  
Dew Point 28 °F    
Average Humidity 97    
Maximum Humidity 100    
Minimum Humidity 93    
Precipitation  
Precipitation 0.00 in - - ()
Sea Level Pressure  
Sea Level Pressure 29.71 in    
Wind  
Wind Speed 7 mph (NE)    
Max Wind Speed 13 mph    
Max Gust Speed 10 mph    
Visibility 5 miles    
Events Snow    
Averages and records for this station are not official NWS values.
T = Trace of Precipitation, MM = Missing Value Source: NWS Daily Summary

Daily Weather History Graph

Daily Weather History Graph

Search for Another Location

Airport or City:

Trip Planner

Search our weather history database for the weather conditions in past years. The results will help you decide how hot, cold, wet, or windy it might be!

Date:

Astronomy

Dec. 03, 2013 Rise Set
Actual Time 7:46 AM CST 4:34 PM CST
Civil Twilight 7:12 AM CST 5:09 PM CST
Nautical Twilight 6:34 AM CST 5:47 PM CST
Astronomical Twilight 5:57 AM CST 6:23 PM CST
Moon 8:15 AM CST (12/3) 5:41 PM CST (12/3)
Length of Visible Light 9h 57m
Length of Day
8h 48m
New Moon, 1% of the Moon is Illuminated
Dec 3
New Moon
Dec 9
First Quarter
Dec 17
Full
Dec 25
Last Quarter
Jan 1
New

Hourly Weather History & Observations

Time (CST) Temp. Windchill Dew Point Humidity Pressure Visibility Wind Dir Wind Speed Gust Speed Precip Events Conditions
12:15 AM 28.4 °F 22.2 °F 28.4 °F 100% 29.60 in 4.0 mi NE 5.8 mph - N/A   Mist
12:35 AM 28.4 °F 22.2 °F 28.4 °F 100% 29.61 in 4.0 mi NE 5.8 mph - N/A Snow Light Snow
12:52 AM 28.4 °F 23.3 °F 28.4 °F 100% 29.60 in 4.0 mi NE 4.6 mph - N/A   Mist
1:15 AM 28.4 °F 20.4 °F 28.4 °F 100% 29.59 in 5.0 mi NE 8.1 mph - N/A   Mist
1:35 AM 28.4 °F 22.2 °F 28.4 °F 100% 29.60 in 4.0 mi NE 5.8 mph - N/A   Mist
1:53 AM 28.4 °F 23.3 °F 28.4 °F 100% 29.61 in 4.0 mi NE 4.6 mph - N/A   Mist
2:15 AM 28.4 °F 23.3 °F 28.4 °F 100% 29.61 in 4.0 mi NE 4.6 mph - N/A   Mist
2:35 AM 28.4 °F 22.2 °F 28.4 °F 100% 29.61 in 4.0 mi NE 5.8 mph - N/A   Mist
2:53 AM 28.4 °F 23.3 °F 28.4 °F 100% 29.62 in 5.0 mi NE 4.6 mph - N/A   Mist
3:15 AM 28.4 °F 21.2 °F 28.4 °F 100% 29.63 in 5.0 mi NE 6.9 mph - N/A   Mist
3:35 AM 28.4 °F 23.3 °F 28.4 °F 100% 29.64 in 5.0 mi NNE 4.6 mph - N/A   Mist
3:52 AM 28.4 °F 23.3 °F 28.4 °F 100% 29.64 in 7.0 mi NNE 4.6 mph - N/A   Unknown
4:14 AM 28.4 °F 21.2 °F 28.4 °F 100% 29.64 in 7.0 mi NNE 6.9 mph - N/A   Unknown
4:34 AM 28.4 °F 22.2 °F 28.4 °F 100% 29.64 in 5.0 mi NNE 5.8 mph - N/A   Mist
4:53 AM 28.4 °F 23.3 °F 28.4 °F 100% 29.65 in 5.0 mi NE 4.6 mph - N/A   Mist
5:14 AM 28.4 °F 21.2 °F 28.4 °F 100% 29.64 in 5.0 mi NE 6.9 mph - N/A   Mist
5:35 AM 28.4 °F 22.2 °F 28.4 °F 100% 29.64 in 5.0 mi NE 5.8 mph - N/A   Mist
5:53 AM 28.4 °F 22.2 °F 28.4 °F 100% 29.65 in 5.0 mi NE 5.8 mph - N/A   Mist
6:14 AM 28.4 °F 21.2 °F 28.4 °F 100% 29.64 in 5.0 mi NE 6.9 mph - N/A   Mist
6:35 AM 28.4 °F 21.2 °F 28.4 °F 100% 29.65 in 5.0 mi NE 6.9 mph - N/A   Mist
6:53 AM 28.4 °F 21.2 °F 28.4 °F 100% 29.65 in 5.0 mi NE 6.9 mph - N/A   Mist
7:14 AM 28.4 °F 20.4 °F 28.4 °F 100% 29.66 in 5.0 mi NE 8.1 mph - N/A   Mist
7:35 AM 28.4 °F 23.3 °F 28.4 °F 100% 29.67 in 4.0 mi NE 4.6 mph - N/A   Mist
7:53 AM 28.4 °F 21.2 °F 28.4 °F 100% 29.67 in 3.0 mi NE 6.9 mph - N/A   Mist
8:15 AM 28.4 °F 20.4 °F 28.4 °F 100% 29.68 in 4.0 mi NE 8.1 mph - N/A   Mist
8:35 AM 28.4 °F 21.2 °F 28.4 °F 100% 29.68 in 3.0 mi NE 6.9 mph - N/A   Mist
8:53 AM 28.4 °F 21.2 °F 28.4 °F 100% 29.69 in 3.0 mi NE 6.9 mph - N/A   Mist
9:15 AM 28.4 °F 22.2 °F 28.4 °F 100% 29.70 in 1.8 mi NE 5.8 mph - N/A   Mist
9:35 AM 28.4 °F 22.2 °F 28.4 °F 100% 29.71 in 1.8 mi NE 5.8 mph - N/A   Mist
9:52 AM 28.4 °F 21.2 °F 28.4 °F 100% 29.72 in 2.0 mi NE 6.9 mph - N/A   Mist
10:14 AM 28.4 °F 20.4 °F 28.4 °F 100% 29.71 in 2.0 mi NE 8.1 mph - N/A   Mist
10:34 AM 28.4 °F 21.2 °F 28.4 °F 100% 29.72 in 2.0 mi ENE 6.9 mph - N/A   Mist
10:53 AM 30.2 °F 21.9 °F 28.4 °F 93% 29.72 in 1.8 mi NE 9.2 mph - N/A   Mist
11:15 AM 30.2 °F 22.6 °F 28.4 °F 93% 29.72 in 1.5 mi NE 8.1 mph - N/A   Mist
11:35 AM 30.2 °F 24.3 °F 28.4 °F 93% 29.72 in 1.5 mi NE 5.8 mph - N/A   Mist
11:52 AM 30.2 °F 22.6 °F 28.4 °F 93% 29.71 in 2.0 mi NE 8.1 mph - N/A   Mist
12:14 PM 30.2 °F 22.6 °F 28.4 °F 93% 29.71 in 2.0 mi NE 8.1 mph - N/A   Mist
12:34 PM 30.2 °F 23.4 °F 28.4 °F 93% 29.71 in 2.5 mi NE 6.9 mph - N/A   Mist
12:53 PM 30.2 °F 23.4 °F 28.4 °F 93% 29.71 in 2.5 mi NE 6.9 mph - N/A   Mist
1:14 PM 30.2 °F 22.6 °F 28.4 °F 93% 29.71 in 2.5 mi NE 8.1 mph - N/A   Overcast
1:35 PM 30.2 °F 25.4 °F 28.4 °F 93% 29.71 in 2.5 mi ENE 4.6 mph - N/A   Overcast
1:53 PM 30.2 °F 24.3 °F 30.2 °F 100% 29.71 in 3.0 mi NE 5.8 mph - N/A   Overcast
2:15 PM 30.2 °F 23.4 °F 30.2 °F 100% 29.71 in 3.0 mi NE 6.9 mph - N/A   Overcast
2:35 PM 30.2 °F 24.3 °F 30.2 °F 100% 29.71 in 2.5 mi ENE 5.8 mph - N/A   Overcast
2:52 PM 30.2 °F 23.4 °F 30.2 °F 100% 29.71 in 2.5 mi NE 6.9 mph - N/A   Overcast
3:14 PM 30.2 °F 24.3 °F 30.2 °F 100% 29.72 in 2.5 mi NE 5.8 mph - N/A   Overcast
3:35 PM 30.2 °F 22.6 °F 30.2 °F 100% 29.72 in 3.0 mi NE 8.1 mph - N/A   Overcast
3:53 PM 30.2 °F 22.6 °F 30.2 °F 100% 29.73 in 2.5 mi ENE 8.1 mph - N/A   Overcast
4:13 PM 30.2 °F 23.4 °F 28.4 °F 93% 29.75 in 4.0 mi ENE 6.9 mph - N/A   Overcast
4:35 PM 30.2 °F 22.6 °F 28.4 °F 93% 29.74 in 3.0 mi ENE 8.1 mph - N/A   Overcast
4:52 PM 30.2 °F 24.3 °F 28.4 °F 93% 29.75 in 4.0 mi ENE 5.8 mph - N/A   Overcast
5:14 PM 30.2 °F 21.9 °F 28.4 °F 93% 29.76 in 5.0 mi East 9.2 mph - N/A   Overcast
5:35 PM 30.2 °F 23.4 °F 28.4 °F 93% 29.76 in 3.0 mi ENE 6.9 mph - N/A   Overcast
5:53 PM 28.4 °F 20.4 °F 28.4 °F 100% 29.77 in 4.0 mi ENE 8.1 mph - N/A   Overcast
6:15 PM 28.4 °F 20.4 °F 28.4 °F 100% 29.78 in 4.0 mi East 8.1 mph - N/A   Overcast
6:35 PM 28.4 °F 20.4 °F 28.4 °F 100% 29.77 in 3.0 mi East 8.1 mph - N/A Snow Light Snow
6:53 PM 28.4 °F 20.4 °F 28.4 °F 100% 29.77 in 3.0 mi East 8.1 mph - N/A Snow Light Snow
7:15 PM 28.4 °F 18.0 °F 26.6 °F 93% 29.78 in 4.0 mi East 12.7 mph - N/A Snow Light Snow
7:35 PM 28.4 °F 19.7 °F 26.6 °F 93% 29.77 in 7.0 mi East 9.2 mph - N/A   Overcast
7:52 PM 28.4 °F 21.2 °F 26.6 °F 93% 29.75 in 10.0 mi ENE 6.9 mph 10.4 mph N/A   Overcast
8:14 PM 28.4 °F 18.5 °F 26.6 °F 93% 29.77 in 10.0 mi East 11.5 mph - N/A   Overcast
8:34 PM 28.4 °F 20.4 °F 26.6 °F 93% 29.81 in 10.0 mi ENE 8.1 mph - N/A   Overcast
8:53 PM 28.4 °F 19.7 °F 26.6 °F 93% 29.81 in 10.0 mi ENE 9.2 mph - N/A   Overcast
9:14 PM 26.6 °F 15.7 °F 24.8 °F 93% 29.79 in 10.0 mi ENE 12.7 mph - N/A   Overcast
9:35 PM 26.6 °F 18.2 °F 24.8 °F 93% 29.81 in 7.0 mi East 8.1 mph - N/A Snow Light Snow
9:52 PM 26.6 °F 16.8 °F 24.8 °F 93% 29.82 in 7.0 mi East 10.4 mph - N/A Snow Light Snow
10:15 PM 26.6 °F 16.8 °F 24.8 °F 93% 29.81 in 7.0 mi East 10.4 mph - N/A   Overcast
10:34 PM 26.6 °F 16.8 °F 24.8 °F 93% 29.78 in 10.0 mi ENE 10.4 mph - N/A   Overcast
10:52 PM 26.6 °F 16.8 °F 24.8 °F 93% 29.79 in 10.0 mi East 10.4 mph - N/A   Overcast
11:14 PM 26.6 °F 16.8 °F 24.8 °F 93% 29.79 in 10.0 mi East 10.4 mph - N/A   Overcast
11:35 PM 26.6 °F 18.2 °F 24.8 °F 93% 29.80 in 10.0 mi East 8.1 mph - N/A   Overcast
11:53 PM 26.6 °F 19.1 °F 24.8 °F 93% 29.80 in 10.0 mi ENE 6.9 mph - N/A   Overcast